User: anonymous   Login
Location: ???????
(54.9996°N, 37.9529°E)
Time: 20:52:42
(UTC+00:00)
Language:

Gbstr 26 Del rocket - Orbit

View from above orbital plane
View from above orbital plane
View from above satellite
View from above satellite

Ground track
Ground track

The orbit data is extracted from the following two-line orbital elements,

1 25876U 99041E   24170.58903108  .00000800  00000-0  17080-3 0  9996
2 25876  51.7667 288.0727 0516569 296.0947  58.7699 14.08213028274258
Epoch (UTC): 18 June 2024 14:08:12
Eccentricity: 0.0516569
inclination: 51.7667°
perigee height: 491 km
apogee height: 1239 km
right ascension of ascending node: 288.0727°
argument of perigee: 296.0947°
revolutions per day: 14.08213028
mean anomaly at epoch: 58.7699°
orbit number at epoch: 27425

The dashed part of the orbit path shows where the satellite is in the earth's shadow,  

DLR